Terminal Aerodrome Forecast
Issued by NWS Cleveland, OH

Home | Current Version | Previous Version | Graphics & Text | Print | Product List | Glossary On
Versions: 1 2 3 4 5 6 7 8 9 10 11 12 13 14 15 16 17 18 19 20 21 22 23 24 25 26
000
FTUS41 KCLE 041148 CCA
TAFCAK
TAF COR
KCAK 041148Z 0412/0512 18005KT 5SM -SHRA BR BKN070 OVC150
      TEMPO 0412/0414 2SM TSRA BR BKN030CB OVC050
     FM041400 18006KT 6SM BR VCSH BKN030
     FM041900 20005KT P6SM VCTS BKN035CB OVC080
     FM050000 15003KT P6SM SCT050 BKN250
     FM050700 13004KT 4SM BR SCT120=

USA.gov is the U.S. government's official web portal to all federal, state and local government web resources and services.